This is the latest recevied weather packets stored in our database for station/object KI7MOQ. If no packets are shown the sender has not sent any weather packets the latest 10 day(s).
| Time | Temp. | Humidity | Pressure | Rain* | Wind** | Luminosity | Snow |
|---|---|---|---|---|---|---|---|
| 1777660655 | 18.33° C | 62% | 1019 hPa | 0 mm | - | 445 W/m² | - |
| 1777660352 | 17.78° C | 62% | 1019.2 hPa | 0 mm | - | 347 W/m² | - |
| 1777660049 | 17.78° C | 62% | 1019.1 hPa | 0 mm | - | 205 W/m² | - |
| 1777659745 | 17.78° C | 63% | 1019.1 hPa | 0 mm | - | 68 W/m² | - |
| 1777659442 | 17.78° C | 62% | 1019.3 hPa | 0 mm | - | 67 W/m² | - |
| 1777659140 | 17.22° C | 64% | 1019.2 hPa | 0 mm | - | 189 W/m² | - |
| 1777658838 | 16.67° C | 67% | 1019.1 hPa | 0 mm | - | 83 W/m² | - |
| 1777658533 | 16.67° C | 66% | 1019.3 hPa | 0 mm | - | 125 W/m² | - |
| 1777658230 | 16.67° C | 67% | 1019.2 hPa | 0 mm | - | 82 W/m² | - |
| 1777657927 | 16.11° C | 67% | 1019.3 hPa | 0 mm | - | 109 W/m² | - |
| 1777657623 | 16.11° C | 68% | 1019.2 hPa | 0 mm | - | 74 W/m² | - |
| 1777657321 | 16.11° C | 68% | 1019.3 hPa | 0 mm | - | 75 W/m² | - |
| 1777657019 | 16.11° C | 69% | 1019.3 hPa | 0 mm | - | 68 W/m² | - |
| 1777656715 | 16.11° C | 68% | 1019.3 hPa | 0 mm | - | 68 W/m² | - |
| 1777656412 | 16.11° C | 68% | 1019.3 hPa | 0 mm | - | 71 W/m² | - |
| 1777656107 | 16.11° C | 69% | 1019.4 hPa | 0 mm | - | 110 W/m² | - |
| 1777655803 | 15.56° C | 71% | 1019.4 hPa | 0 mm | - | 98 W/m² | - |
| 1777655500 | 15.56° C | 71% | 1019.4 hPa | 0 mm | - | 95 W/m² | - |
| 1777655196 | 15.56° C | 71% | 1019.4 hPa | 0 mm | - | 96 W/m² | - |
| 1777654893 | 15.56° C | 71% | 1019.3 hPa | 0 mm | - | 88 W/m² | - |
| 1777654590 | 15.56° C | 72% | 1019.4 hPa | 0 mm | - | 86 W/m² | - |
| 1777654281 | 15° C | 73% | 1019.5 hPa | 0 mm | - | 85 W/m² | - |
| 1777653980 | 15° C | 73% | 1019.5 hPa | 0 mm | - | 87 W/m² | - |
| 1777653671 | 15.56° C | 72% | 1019.5 hPa | 0 mm | - | 89 W/m² | - |
| 1777653367 | 15.56° C | 71% | 1019.6 hPa | 0 mm | - | 103 W/m² | - |
* Rain latest hour (hover to see other rain measurements)
** Current wind speed in m/s (hover to see current wind gust speed)